Atlanta Dekalb, GA

9:01 PM EDT on August 19, 2017 (GMT -0400)
Dekalb-Peachtree

Weather History for KPDK - October, 2014

Change the Weather History Date:

Wednesday, October 29, 2014

  Actual Average Record
Temperature  
Mean Temperature 59 °F 58 °F  
Max Temperature 70 °F 69 °F 84 °F (1996)
Min Temperature 48 °F 47 °F 30 °F (2001)
Degree Days  
Heating Degree Days 6 8  
Month to date heating degree days 97 127  
Since 1 July heating degree days 97 137  
Cooling Degree Days 0 1  
Month to date cooling degree days 76 49  
Year to date cooling degree days 1768 1753  
Growing Degree Days 11 (Base 50)    
Moisture  
Dew Point 55 °F    
Average Humidity 82    
Maximum Humidity 93    
Minimum Humidity 71    
Precipitation  
Precipitation 0.07 in 0.11 in 0.48 in (2002)
Month to date precipitation 3.09 3.25  
Year to date precipitation 38.50 44.39  
Sea Level Pressure  
Sea Level Pressure 30.05 in    
Wind  
Wind Speed 5 mph (West)    
Max Wind Speed 16 mph    
Max Gust Speed 20 mph    
Visibility 8 miles    
Events Rain    
T = Trace of Precipitation, MM = Missing Value Source: NWS Daily Summary

Daily Weather History Graph

Daily Weather History Graph

Search for Another Location

Airport or City:

Trip Planner

Search our weather history database for the weather conditions in past years. The results will help you decide how hot, cold, wet, or windy it might be!

Date:

Astronomy

Oct. 29, 2014 Rise Set
Actual Time 7:53 AM EDT 6:47 PM EDT
Civil Twilight 7:28 AM EDT 7:13 PM EDT
Nautical Twilight 6:58 AM EDT 7:42 PM EDT
Astronomical Twilight 6:29 AM EDT 8:11 PM EDT
Moon 1:08 PM EDT (10/29) 11:59 PM EDT (10/29)
Length of Visible Light 11h 44m
Length of Day
10h 53m
Waxing Crescent, 34% of the Moon is Illuminated
Oct 29
Waxing Crescent
Oct 30
First Quarter
Nov 6
Full
Nov 14
Last Quarter
Nov 22
New

Hourly Weather History & Observations

Time (EDT) Temp. Dew Point Humidity Pressure Visibility Wind Dir Wind Speed Gust Speed Precip Events Conditions
12:53 AM 57.0 °F 54.0 °F 89% 30.07 in 6.0 mi Calm Calm - N/A   Clear
1:53 AM 55.0 °F 52.0 °F 89% 30.07 in 5.0 mi Calm Calm - N/A   Clear
2:53 AM 55.0 °F 53.1 °F 93% 30.07 in 5.0 mi Calm Calm - N/A   Clear
3:53 AM 54.0 °F 52.0 °F 93% 30.06 in 3.0 mi Calm Calm - N/A   Clear
4:00 AM 55.4 °F 53.6 °F 94% 30.08 in 2.0 mi Calm Calm - N/A   Clear
4:10 AM 55.4 °F 53.6 °F 94% 30.08 in 7.0 mi Calm Calm - N/A   Clear
4:53 AM 55.0 °F 53.1 °F 93% 30.05 in 5.0 mi SSW 3.5 mph - N/A   Clear
5:53 AM 54.0 °F 52.0 °F 93% 30.06 in 4.0 mi Calm Calm - N/A   Clear
6:53 AM 54.0 °F 52.0 °F 93% 30.07 in 10.0 mi Calm Calm - N/A   Partly Cloudy
7:53 AM 55.0 °F 53.1 °F 93% 30.06 in 5.0 mi Calm Calm - N/A   Scattered Clouds
8:53 AM 61.0 °F 55.9 °F 83% 30.08 in 7.0 mi WSW 4.6 mph - N/A   Mostly Cloudy
9:53 AM 61.0 °F 57.0 °F 87% 30.09 in 4.0 mi WSW 5.8 mph - 0.01 in Rain Light Rain
10:53 AM 62.1 °F 59.0 °F 90% 30.08 in 3.0 mi SSW 6.9 mph - 0.02 in Rain Light Rain
11:53 AM 62.1 °F 60.1 °F 93% 30.08 in 6.0 mi SW 6.9 mph - 0.02 in Rain Light Rain
12:53 PM 64.9 °F 61.0 °F 87% 30.04 in 10.0 mi SW 6.9 mph - 0.02 in Rain Light Rain
1:07 PM 66.2 °F 60.8 °F 83% 30.06 in 10.0 mi WSW 9.2 mph - 0.00 in Rain Light Rain
1:41 PM 68.0 °F 60.8 °F 78% 30.04 in 10.0 mi SW 8.1 mph - 0.00 in   Mostly Cloudy
1:53 PM 68.0 °F 61.0 °F 78% 30.02 in 10.0 mi WSW 6.9 mph - 0.00 in   Overcast
2:15 PM 69.8 °F 60.8 °F 73% 30.03 in 10.0 mi West 10.4 mph - N/A   Overcast
2:40 PM 69.8 °F 60.8 °F 73% 30.02 in 10.0 mi West 8.1 mph - N/A   Mostly Cloudy
2:53 PM 70.0 °F 62.1 °F 76% 30.00 in 10.0 mi SW 8.1 mph - N/A   Mostly Cloudy
3:19 PM 66.2 °F 60.8 °F 83% 30.01 in 10.0 mi NW 11.5 mph - N/A   Overcast
3:36 PM 64.4 °F 59.0 °F 83% 30.02 in 9.0 mi NW 11.5 mph - N/A   Overcast
3:53 PM 63.0 °F 57.0 °F 81% 30.01 in 8.0 mi NW 15.0 mph - N/A   Overcast
4:25 PM 60.8 °F 53.6 °F 77% 30.03 in 10.0 mi WNW 12.7 mph - N/A   Overcast
4:53 PM 61.0 °F 53.1 °F 75% 30.02 in 10.0 mi WNW 10.4 mph - N/A   Overcast
5:03 PM 62.6 °F 53.6 °F 72% 30.03 in 10.0 mi NW 9.2 mph - N/A   Overcast
5:53 PM 62.1 °F 53.1 °F 72% 30.02 in 10.0 mi West 6.9 mph - N/A   Clear
6:53 PM 57.9 °F 51.1 °F 78% 30.04 in 10.0 mi NW 9.2 mph - N/A   Clear
7:53 PM 55.9 °F 48.0 °F 75% 30.05 in 10.0 mi NW 8.1 mph - N/A   Clear
8:53 PM 55.0 °F 46.0 °F 72% 30.05 in 10.0 mi NW 8.1 mph - N/A   Clear
9:53 PM 53.1 °F 45.0 °F 74% 30.06 in 10.0 mi NW 8.1 mph - N/A   Clear
10:53 PM 52.0 °F 44.1 °F 74% 30.06 in 10.0 mi NW 5.8 mph - N/A   Clear
11:53 PM 50.0 °F 44.1 °F 80% 30.06 in 10.0 mi NW 3.5 mph - N/A   Clear